Location: Unspecified
(58.7730°N, 5.8460°E)
Time: 17:41:11
(UTC+01:00)

Cosmos 2058 - Visible Passes

Search period start: 30 October 2014 00:00
Search period end: 09 November 2014 00:00
Orbit: 571 x 592 km, 82.5° (Epoch: 29 October)

Date Brightness Start Highest point End Pass type
(mag) Time Alt. Az. Time Alt. Az. Time Alt. Az.
30 Oct 3.7 04:26:35 49° ESE 04:27:05 52° E 04:31:14 10° NNE visible
30 Oct 3.9 06:03:00 23° W 06:04:27 28° WNW 06:08:09 10° N visible
31 Oct 6.0 02:56:24 12° ENE 02:56:24 12° ENE 02:57:58 10° NE visible
31 Oct 3.3 04:32:49 66° ENE 04:32:49 66° ENE 04:36:50 10° NNE visible
31 Oct 4.1 06:09:13 21° WNW 06:10:07 23° WNW 06:13:33 10° N visible
01 Nov 5.9 03:02:31 14° ENE 03:02:31 14° ENE 03:04:08 10° NE visible
01 Nov 3.4 04:38:56 58° NNE 04:38:56 58° NNE 04:42:23 10° NNE visible
01 Nov 4.4 06:15:20 19° WNW 06:15:49 19° NW 06:18:54 10° N visible
02 Nov 5.8 03:08:33 16° ENE 03:08:33 16° ENE 03:10:02 10° NE visible
02 Nov 3.7 04:44:57 43° N 04:44:57 43° N 04:47:55 10° N visible
02 Nov 4.6 06:21:21 16° NW 06:21:31 16° NW 06:24:11 10° NNW visible
03 Nov 5.7 03:14:30 17° NE 03:14:30 17° NE 03:15:50 10° NNE visible
03 Nov 4.1 04:50:54 33° N 04:50:54 33° N 04:53:25 10° N visible
03 Nov 4.8 06:27:18 13° NW 06:27:18 13° NW 06:29:21 10° NNW visible
04 Nov 5.7 03:20:24 16° NE 03:20:24 16° NE 03:21:32 10° NNE visible
04 Nov 4.4 04:56:47 26° N 04:56:47 26° N 04:58:54 10° N visible
04 Nov 5.0 06:33:11 11° NW 06:33:11 11° NW 06:34:14 10° NNW visible
05 Nov 5.7 03:26:14 16° NNE 03:26:14 16° NNE 03:27:10 10° NNE visible
05 Nov 4.7 05:02:37 21° NNW 05:02:37 21° NNW 05:04:20 10° N visible
06 Nov 5.7 03:32:02 15° NNE 03:32:02 15° NNE 03:32:46 10° NNE visible
06 Nov 4.9 05:08:25 18° NNW 05:08:25 18° NNW 05:09:45 10° N visible
07 Nov 5.8 03:37:47 13° NNE 03:37:47 13° NNE 03:38:20 10° NNE visible
07 Nov 5.1 05:14:10 15° NNW 05:14:10 15° NNW 05:15:07 10° N visible
08 Nov 5.8 03:43:30 12° NNE 03:43:30 12° NNE 03:43:51 10° NNE visible
08 Nov 5.3 05:19:52 12° NNW 05:19:52 12° NNW 05:20:26 10° N visible
